sat.trackr.live / text

‹ back to catalog

STARLINK-36670

NORAD 67828 · 2026-033H

PAYLOAD ACTIVE UNKNOWN

§ Identity

Operator
Country
US
Launch date
2026-02-16
Launch site
AFETR
Launch vehicle
Mass (kg)
RCS (m²)

Purposes: comms

External: N2YO · Heavens-Above · Gunter

§ Orbital elements

Epoch: 2026-05-25T03:30:51.768864Z

Period
94.27 min
Inclination
42.9995°
Eccentricity
0.0001183
Mean motion
15.27589403 rev/d
Perigee alt
482.2 km
Apogee alt
483.8 km
Semi-major
6,861.2 km
B*
7.7855e-4
RAAN
195.5659°
Arg perigee
262.7976°
Mean anomaly
97.2741°
Rev number
1,636

§ Raw data

STARLINK-366701 67828U 26033H   26145.14643251  .00021230  00000+0  77855-3 0  99912 67828  42.9995 195.5659 0001183 262.7976  97.2741 15.27589403 16363

JSON: /api/v1/satellites/67828 · /tle

For live sub-satellite position, see the globe view (requires WebGL).

§ Visibility from observer

Set your observer location to see the next 7 days of passes ≥ 10°. The values pass through the URL so the page stays shareable.

No JS? Fill the form by hand. The geolocation button needs JavaScript.